Content
SEND FEEDBACK

Daily
Averages
Monthly
Summary
United States of America

NEW BULLARDS BAR RESERVOIR, CALIFORNIA


Home > North America > United States > California
Elevation: 670 meters     Latitude: 39 25N     Longitude: 121 09W

WEATHER
 
SELECT A DAY
Number of Records: 62,306;   Date Range: 9/21/11 - 9/13/14
 
SHARE

PRINT THIS DATA

[ ← Previous Day ]
WEATHER ALMANAC - 13 FEBRUARY, 2013
[ Next Day → ]
[ °F ]   °C
Weather ElementAverageHighLow
Temperature9 °C14 °C (12:35 pm)2 °C (4:55 am)
Dewpoint0.1 °C4 °C (4:55 pm)-4 °C (9:55 pm)
Humidity56.3 %87 % (4:55 am)31 % (9:55 pm)
Barometer1024.7 hPa1026.1 hPa (12:35 am)1023.4 hPa (4:15 pm)
Wind Speed3.9 km/h13 km/h (12:55 pm)
Weather ElementAverage
Visibility15.6 km
Wind DirectionENE (82.8 °)

Weather ElementTotal
Precipitation---
Heating Degree Days10.3 (Base 18.3)
Averaged from 69 records on 13 February, 2013
WEATHER CONDITIONS BREAKOUT
WIND DIRECTION BREAKOUT
WEATHER BY HOUR - 13 FEBRUARY, 2013
[ °F ]   °C
Local TimeTemperatureDewpointHumidityBarometerVisibilityWind DirectionWind SpeedGust SpeedPrecipitationEventsConditions
12:35 AM4 °C0 °C75 %1026.1 hPa16.1 kmCalmClear
12:55 AM4 °C0 °C75 %1026.1 hPa16.1 kmCalmClear
1:15 AM5 °C0 °C70 %1026.1 hPa16.1 kmNW (310°)9.3 km/hClear
1:35 AM4 °C0 °C75 %1026.1 hPa16.1 kmCalmClear
1:55 AM4 °C0 °C75 %1026.1 hPa16.1 kmCalmClear
2:15 AM4 °C0 °C75 %1026.1 hPa16.1 kmCalmClear
2:35 AM4 °C0 °C75 %1026.1 hPa16.1 kmCalmClear
2:55 AM4 °C0 °C75 %1025.7 hPa16.1 kmCalmClear
3:15 AM4 °C0 °C75 %1025.7 hPa16.1 kmCalmClear
3:35 AM4 °C0 °C75 %1025.4 hPa12.9 kmCalmClear
4:15 AM3 °C0 °C81 %1025.4 hPa11.3 kmCalmClear
4:35 AM3 °C0 °C81 %1025.4 hPa11.3 kmCalmClear
4:55 AM2 °C0 °C87 %1025.4 hPa11.3 kmCalmClear
5:15 AM3 °C0 °C81 %1025.4 hPa11.3 kmCalmClear
5:35 AM2 °C0 °C87 %1025.4 hPa11.3 kmCalmClear
5:55 AM2 °C0 °C87 %1025.4 hPa11.3 kmCalmClear
6:15 AM3 °C0 °C81 %1025.4 hPa14.5 kmCalmClear
6:35 AM3 °C0 °C81 %1025.4 hPa16.1 kmCalmClear
6:55 AM4 °C-1 °C70 %1025.4 hPa16.1 kmCalmClear
7:15 AM4 °C-2 °C65 %1025.7 hPa16.1 kmCalmClear
7:35 AM5 °C-2 °C61 %1025.7 hPa16.1 kmCalmClear
7:55 AM6 °C-1 °C61 %1025.7 hPa16.1 kmCalmClear
8:15 AM7 °C-1 °C57 %1025.7 hPa16.1 kmCalmClear
8:35 AM7 °C0 °C61 %1025.4 hPa16.1 kmCalmClear
8:55 AM8 °C0 °C57 %1025.7 hPa16.1 kmCalmClear
9:15 AM8 °C-1 °C53 %1025.7 hPa16.1 kmWNW (300°)5.6 km/hClear
9:35 AM8 °C0 °C57 %1025.7 hPa16.1 kmWNW (290°)5.6 km/hClear
9:55 AM8 °C0 °C57 %1026.1 hPa16.1 kmCalmClear
10:15 AM9 °C0 °C54 %1026.1 hPa16.1 kmWest (280°)7.4 km/hClear
10:35 AM9 °C0 °C54 %1026.1 hPa16.1 kmCalmClear
10:55 AM11 °C-3 °C38 %1026.1 hPa16.1 kmCalmClear
11:15 AM12 °C-2 °C38 %1026.1 hPa16.1 kmCalmClear
11:35 AM12 °C-2 °C38 %1025.7 hPa16.1 kmWest (280°)7.4 km/hClear
11:55 AM13 °C0 °C41 %1025.4 hPa16.1 kmWest (270°)5.6 km/hClear
12:15 PM13 °C0 °C41 %1025.1 hPa16.1 kmCalmClear
12:35 PM14 °C1 °C41 %1024.7 hPa16.1 kmWSW (250°)9.3 km/hClear
12:55 PM14 °C1 °C41 %1024.7 hPa16.1 kmWest (260°)13 km/hClear
1:15 PM13 °C2 °C47 %1024.4 hPa16.1 kmCalmClear
1:35 PM13 °C2 °C47 %1024 hPa16.1 kmWest (280°)11.1 km/hClear
1:55 PM13 °C2 °C47 %1024 hPa16.1 kmWest (260°)9.3 km/hClear
2:15 PM13 °C3 °C51 %1023.7 hPa16.1 kmWNW (300°)9.3 km/hClear
2:35 PM13 °C3 °C51 %1023.7 hPa16.1 kmWest (280°)13 km/hClear
2:55 PM13 °C3 °C51 %1023.7 hPa16.1 kmWest (270°)9.3 km/hClear
3:15 PM13 °C3 °C51 %1023.7 hPa14.5 kmWNW (290°)9.3 km/hClear
3:35 PM13 °C3 °C51 %1023.7 hPa16.1 kmWest (280°)11.1 km/hClear
3:55 PM13 °C3 °C51 %1023.7 hPa16.1 kmWNW (290°)5.6 km/hClear
4:15 PM13 °C3 °C51 %1023.4 hPa16.1 kmCalmClear
4:35 PM13 °C3 °C51 %1023.4 hPa16.1 kmCalmClear
4:55 PM13 °C4 °C54 %1023.4 hPa16.1 kmCalmClear
5:15 PM13 °C3 °C51 %1023.4 hPa16.1 kmCalmClear
5:35 PM12 °C4 °C58 %1023.7 hPa16.1 kmNW (320°)5.6 km/hClear
5:55 PM10 °C4 °C66 %1023.7 hPa16.1 kmCalmClear
6:15 PM10 °C4 °C66 %1023.7 hPa16.1 kmCalmClear
6:35 PM9 °C4 °C71 %1023.7 hPa16.1 kmCalmClear
6:55 PM9 °C3 °C66 %1023.7 hPa16.1 kmCalmClear
7:15 PM9 °C0 °C54 %1024 hPa16.1 kmNE (40°)7.4 km/hClear
7:35 PM10 °C-1 °C47 %1024 hPa16.1 kmCalmClear
7:55 PM12 °C-2 °C38 %1024 hPa16.1 kmNNE (20°)5.6 km/hClear
8:15 PM12 °C-3 °C35 %1024 hPa16.1 kmNorth (10°)7.4 km/hClear
8:35 PM12 °C-3 °C35 %1024 hPa16.1 kmNorth (360°)7.4 km/hClear
8:55 PM12 °C-3 °C35 %1024 hPa16.1 kmNNE (20°)5.6 km/hClear
9:15 PM12 °C-3 °C35 %1024 hPa16.1 kmENE (60°)11.1 km/hClear
9:55 PM13 °C-4 °C31 %1024 hPa16.1 kmENE (60°)7.4 km/hClear
10:15 PM13 °C-4 °C31 %1024.4 hPa16.1 kmENE (60°)9.3 km/hClear
10:35 PM13 °C-3 °C33 %1024.4 hPa16.1 kmNE (50°)13 km/hClear
10:55 PM13 °C-3 °C33 %1024.4 hPa16.1 kmENE (60°)13 km/hClear
11:15 PM13 °C-3 °C33 %1024.4 hPa16.1 kmNE (50°)13 km/hClear
11:35 PM13 °C-3 °C33 %1024.4 hPa16.1 kmENE (60°)13 km/hClear
11:55 PM12 °C-3 °C35 %1024.4 hPa16.1 kmNE (50°)9.3 km/hClear
Hourly data recorded from KGOO, located 0 kilometers away from New Bullards Bar Reservoir, California







STORIES FROM OUR PARTNERS